Погода в Балхаше

Погода в Балхаше : погода сейчас, прогноз погоды и архив. Всё, что Вы хотите узнать о погоде в Балхаше!

Хотите узнать прогноз погоды в Балхаше? Тогда Вам сюда: Погода в Балхаше

Поиск расширенной информации на нашем сайте:

Другие новости

Новости СМИ2

Главная страница сайта

Новости сайта

03.07.2017

Напоминаем, что на нашем специализированном сайте Метеоцентр.Азия вы можете получить высокодетализированные автоматические прогнозы погоды по пунктам России, СНГ и мира в авиационном формате (включающие направление и скорость ветра, видимость, явления погоды, количество и форму облачности, нижнюю и верхнюю границу облачности).


Погода в Балхаше - сегодня

Время (UTC), дата Ветер
(°,м/с) 
Видим.   Явления Облачность Т
(°С)
Тd
(°С)
f(%) Тe
(°С)
Pmin
(гПа)
dP
(гПа)
Po
(мм)
O2
(г/м3)
Тmin Tmax R s Состояние
почвы
15 12.10.18 210 (ЮЗ) 10 км    8/0 средняя, верхняя 
[Ac trans|Ci sp]
+14.3 +8.9 70 +13  1009.3  -1  726  277    +14.8       
18 12.10.18 230 (ЮЗ) 10 км    4/0 средняя 
[Ac lent]
+14.2 +7.9 66 +13  1007.6  -1.7  725  276    +14.8       
21 12.10.18 210 (ЮЗ) 10 км    10/0 средняя 
[Ac und]
+13.8 +7.6 66 +12  1004.9  -2.6  723  276           
00 13.10.18 280 (З) 10 км    10/0 средняя 
[Ac und]
+11.6 +2.3 53 +11  1005.5  0.2  723  279           
03 13.10.18 280 (З) 8-17  10 км  слаб. ливневой дождь  10/10 1000 м кучево-дожд. 
[Cb cap]
+7.1 +2.9 75 +4  1009.1  2.8  725  284           
06 13.10.18 250 (З) 11  10 км  {ливн. осадки}  9/8 600 м кучево-дожд., средняя 
[Cb calv|Ac trans]
+8.1 +1.9 65 +5  1010.5  1.5  727  284  +0.7    0.0     
09 13.10.18 270 (З) 6{17}  20000 м  в посл. час ливневой дождь  9/8 600 м кучево-дожд., средняя 
[Cb cap|Ac trans]
+8.9 -1.3 49 +7  1011.5  727  284           
12 13.10.18 270 (З) 10 км  {ливн. осадки}  6/5 1000 м средняя 
[Sc|Ac trans]
+6.9 +0.4 63 +5  1014.3  2.4  729  286           
15 13.10.18 290 (З) 10 км    3/0 средняя 
[Ac trans]
+5.6 -1 62 +3  1017.2  2.6  731  289    +9.2       
18 13.10.18 280 (З) 9-15  10 км    6/0 средняя 
[Ac As]
+4 -1.8 66 1019.3  1.8  732  291    +9.2  0.7     
21 13.10.18 290 (З) 7{19}  10 км    ясно 
+1.3 -3.5 70 -2  1022.8  2.9  735  295           
00 14.10.18 300 (СЗ) 10 км    ясно 
+1 -3.2 73 -2  1024.3  1.4  736  296           
03 14.10.18 280 (З) 20000 м    4/3 1000 м средняя, верхняя 
[Sc|Ac trans|Ci fib]
+2.1 -2.8 70 -1  1026.3  2.1  737  295           
06 14.10.18 270 (З) 20000 м    8/6 1000 м средняя, верхняя 
[Cu med, cong|Ac trans|Ci fib]
+5.3 -3.1 55 +3  1025.7  -0.1  737  292  +0.9         
09 14.10.18 300 (СЗ) 7{15}  10 км  слаб. ливневой дождь  9/8 600 м кучево-дожд., средняя, верхняя 
[Cb cap|Ac trans|Ci fib]
+3.6 -1 72 1025.7  -0.3  737  293           
12 14.10.18 240 (ЮЗ) 10 км  {ливн. осадки}  9/9 1000 м 
[Sc]
+5.6 -5 46 +4  1025.3  -0.1  737  291           
15 14.10.18 190 (Ю) 10 км  слаб. ливневой дождь  10/10 600 м кучево-дожд. 
[Cb cap]
+4.8 +0.7 75 +2  1025.2  -0.1  737  292    +7       
18 14.10.18 170 (Ю) 10 км  {ливн. осадки}  8/8 600 м 
[Sc]
+5 -0.2 69 +2  1023.2  -1.9  735  291    +0.7  0.0     
21 14.10.18 180 (Ю) 10 км    10/10 600 м 
[Sc]
+5.4 +0.6 71 +3  1021.3  -1.8  734  290           
00 15.10.18 200 (Ю) 10 км    10/10 1000 м 
[Sc]
+5.4 +2.5 82 +3  1018.4  -2.8  732  289           
03 15.10.18 160 (Ю) 10 км  слаб. дождь{ливн. осадки}  10/10 600 м 
[St|Ns]
+5.1 +1.9 80 +3  1017.6  -0.8  731  289           
06 15.10.18 150 (ЮВ) 10 км  {ливн. осадки, дождь}  10/8 600 м средняя, верхняя 
[St|As op|Ci fib]
+7 +0.8 65 +4  1014.6  -2.6  729  286  +0.2    0.4     
09 15.10.18 200 (Ю) 10 км  в посл. час ливневой дождь  10/10 600 м кучево-дожд. 
[Cb cap]
+9.6 +2.4 61 +7  1011.9  -2.2  728  283           
12 15.10.18 220 (ЮЗ) 11-15{15}  4000 м  слаб. ливневой дождь  10/10 600 м кучево-дожд. 
[Cb cap]
+7.6 +4.4 80 +4  1011.6  -0.5  727  284           
15 15.10.18 190 (Ю) 11{19}  10 км  в посл. час ливневой дождь  10/10 600 м 
[St]
+7.5 +4.4 81 +4  1010.7  -0.9  727  284    +9.8       
Время (UTC), дата Ветер
(°,м/с) 
Видим.   Явления Облачность Т
(°С)
Тd
(°С)
f(%) Тe
(°С)
Pmin
(гПа)
dP
(гПа)
Po
(мм)
O2
(г/м3)
Тmin Tmax R s Состояние
почвы

Для получения пояснительной информации подведите курсор к названию столбца.

ПОГОДА в Балхаше - архив

Всё, что Вы хотите узнать о погоде в Балхаше - удобно и подробно!

Выберите нужную дату (начиная с 1 января 2015* года) и нажмите кнопку "Найти".
Будут отображены архивные сводки погоды по пункту Балхаш, начиная с указанной даты.


Отображать данные в формате CSV (для использования в таблицах Excel)


Внимание! Наш архив погоды предназначен исключительно для личного некоммерческого использования в познавательных целях. Если Вам необходимы официальные справки о состоянии погоды (для производственных, юридических, коммерческих и т.п. целей), обращайтесь в органы Росгидромета.

*Примечание: данная дата относится к архиву по метеостанциям СССР (Россия, СНГ, Балтия).
Архив по метеостанциям Зарубежной Европы и Азии (кроме Китая) хранится 10 дней, по другим регионам земного шара (Китай, Африка, Америка, Австралия, Океания) - 1 день.

Балхаш - район местоположения метеостанции


Название, широта, долгота, высота метеостанции:
Балхаш 46.8°ш. 75.1°д. 350 м над ур. моря [Казахстан]

Дополнительная информация

В oтличие oт бoльшинства пoгoдных сайтoв мы публикуем пoдрoбную метеoинфoрмацию в детальнoм прoфессиoнальнoм фoрмате.

Характеристики температуры и влажнoсти вoздуха измеряются на высoте 2 м в тени вдали oт зданий и деревьев.
Скoрoсть ветра измеряется на высoте 10 м (на урoвне рoста челoвека скoрoсть ветра ниже в 1.5-2 раза). Если метеoстанция нахoдится в гoрoде или в лесу, тo скoрoсть ветра занижена на 2-4 м/с пo сравнению с oткрытым местoм. Скoрoсть ветра над акватoриями крупных рек и oзёр, а также на вершинах хoлмoв на 2-5 м/с выше, чем в oбычных услoвиях.
Атмoсфернoе давление в разных тoчках местнoсти мoжет значительнo oтличаться oт давления на метеoстанции, в зависимoсти oт услoвий рельефа (при пoдъёме на 10 м давление пoнижается примернo на 1 мм рт.ст.).